Simultaneous Nadir Overpasses (SNOs) Predictions

Prediction of SNOs between LANDSAT-8 and NOAA-19 Satellite Orbit:

Table of predicted SNOs for the next 14.0 days since TLE Epoch: 8/13/2022
Index Date (LANDSAT-8) Time (LANDSAT-8) Lat,Lon (LANDSAT-8) SZA (LANDSAT-8 ) Date (NOAA-19) Time (NOAA-19) Lat,Lon (NOAA-19) SZA (NOAA-19 ) Distance(km) Time Diff (sec)
1 08/15/2022 02:54:01 -80.82, -7.58 111.59 08/15/2022 02:54:17 -80.83, -7.47 111.56 2.45 16
2 08/17/2022 08:27:44 80.85, 89.40 69.19 08/17/2022 08:27:05 80.84, 89.29 69.15 2.66 39
3 08/17/2022 09:17:12 -80.82,-103.33 110.86 08/17/2022 09:18:10 -80.84,-103.48 110.84 2.97 58
4 08/19/2022 14:50:55 80.85, -6.42 69.93 08/19/2022 14:50:57 80.83, -6.48 69.91 2.12 2
5 08/21/2022 20:24:40 -80.84, 90.06 109.34 08/21/2022 20:23:56 -80.84, 89.92 109.37 2.42 44
6 08/21/2022 21:14:06 80.84,-102.28 70.68 08/21/2022 21:14:49 80.83,-102.27 70.69 1.47 43
7 08/24/2022 02:47:51 -80.83, -5.83 108.58 08/24/2022 02:47:48 -80.84, -5.88 108.58 0.92 3
8 08/26/2022 08:21:34 80.85, 90.89 72.23 08/26/2022 08:20:35 80.84, 90.89 72.20 0.55 59



Historial Predications of SNOs between LANDSAT-8 and NOAA-19
